Weather History for KAZO - May, 2013

Change the Weather History Date:

Saturday, May 18, 2013

  Actual Average Record
Temperature  
Mean Temperature 67 °F 60 °F  
Max Temperature 82 °F 71 °F 92 °F (1962)
Min Temperature 52 °F 49 °F 33 °F (1973)
Degree Days  
Heating Degree Days 0 7  
Month to date heating degree days 81 157  
Since 1 July heating degree days 6213 6300  
Cooling Degree Days 2 1  
Month to date cooling degree days 23 12  
Year to date cooling degree days 25 16  
Growing Degree Days 17 (Base 50)    
Moisture  
Dew Point 50 °F    
Average Humidity 53    
Maximum Humidity 63    
Minimum Humidity 42    
Precipitation  
Precipitation 0.00 in 0.14 in 2.28 in (2000)
Month to date precipitation 0.83 2.27  
Year to date precipitation 12.42 10.84  
Sea Level Pressure  
Sea Level Pressure 30.07 in    
Wind  
Wind Speed 4 mph (SE)    
Max Wind Speed 9 mph    
Max Gust Speed 14 mph    
Visibility 10 miles    
Events      
T = Trace of Precipitation, MM = Missing Value Source: NWS Daily Summary

Daily Weather History Graph

Daily Weather History Graph

Search for Another Location

Airport or City:

Trip Planner

Search our weather history database for the weather conditions in past years. The results will help you decide how hot, cold, wet, or windy it might be!

Date:

Astronomy

May. 18, 2013 Rise Set
Actual Time 6:17 AM EDT 8:59 PM EDT
Civil Twilight 5:45 AM EDT 9:32 PM EDT
Nautical Twilight 5:04 AM EDT 10:13 PM EDT
Astronomical Twilight 4:18 AM EDT 11:00 PM EDT
Moon 1:55 PM EDT (5/18) 2:18 AM EDT (5/18)
Length of Visible Light 15h 46m
Length of Day
14h 41m
First Quarter, 55% of the Moon is Illuminated
May 18
First Quarter
May 25
Full
May 31
Last Quarter
Jun 8
New
Jun 16
First Quarter

Hourly Weather History & Observations

Time (EDT) Temp. Heat Index Dew Point Humidity Pressure Visibility Wind Dir Wind Speed Gust Speed Precip Events Conditions
12:53 AM 63.0 °F - 42.1 °F 46% 30.10 in 10.0 mi Variable 5.8 mph - N/A   Clear
1:53 AM 60.1 °F - 43.0 °F 53% 30.10 in 10.0 mi SE 3.5 mph - N/A   Clear
2:53 AM 57.9 °F - 41.0 °F 53% 30.09 in 10.0 mi ESE 4.6 mph - N/A   Clear
3:53 AM 55.0 °F - 41.0 °F 59% 30.10 in 10.0 mi Calm Calm - N/A   Clear
4:53 AM 54.0 °F - 39.9 °F 59% 30.10 in 10.0 mi Calm Calm - N/A   Clear
5:53 AM 53.1 °F - 39.9 °F 61% 30.12 in 10.0 mi Calm Calm - N/A   Mostly Cloudy
6:53 AM 55.9 °F - 42.1 °F 60% 30.13 in 10.0 mi NE 3.5 mph - N/A   Mostly Cloudy
7:53 AM 57.9 °F - 43.0 °F 58% 30.12 in 10.0 mi East 3.5 mph - N/A   Mostly Cloudy
8:53 AM 61.0 °F - 45.0 °F 56% 30.12 in 10.0 mi ESE 4.6 mph - N/A   Clear
9:53 AM 64.9 °F - 46.0 °F 50% 30.11 in 10.0 mi SE 4.6 mph - N/A   Clear
10:53 AM 69.1 °F - 48.0 °F 47% 30.09 in 10.0 mi Calm Calm - N/A   Clear
11:53 AM 73.0 °F - 52.0 °F 48% 30.09 in 10.0 mi Variable 3.5 mph - N/A   Clear
12:53 PM 73.9 °F - 55.0 °F 52% 30.08 in 10.0 mi SSW 6.9 mph - N/A   Overcast
1:53 PM 75.9 °F - 55.0 °F 48% 30.06 in 10.0 mi South 6.9 mph - N/A   Partly Cloudy
2:53 PM 78.8 °F - 59.0 °F 51% 30.05 in 10.0 mi SSW 6.9 mph - N/A   Partly Cloudy
3:53 PM 80.1 °F 80.4 °F 57.0 °F 45% 30.03 in 10.0 mi ESE 5.8 mph - N/A   Partly Cloudy
4:53 PM 81.0 °F 80.7 °F 55.0 °F 41% 30.01 in 10.0 mi Variable 4.6 mph - N/A   Scattered Clouds
5:53 PM 78.8 °F - 57.2 °F 47% 30.01 in 10.0 mi South 8.1 mph - N/A   Overcast
6:53 PM 77.0 °F - 57.9 °F 52% 30.01 in 10.0 mi South 3.5 mph - N/A   Overcast
7:53 PM 78.1 °F - 59.0 °F 52% 29.99 in 10.0 mi SSE 3.5 mph - N/A   Overcast
8:53 PM 75.9 °F - 57.0 °F 52% 29.99 in 10.0 mi SSE 4.6 mph - N/A   Clear
9:53 PM 73.4 °F - 57.2 °F 57% 30.01 in 10.0 mi SSE 3.5 mph - N/A   Clear
10:53 PM 69.1 °F - 55.0 °F 61% 30.02 in 10.0 mi SE 4.6 mph - N/A   Clear
11:53 PM 66.0 °F - 53.1 °F 63% 30.03 in 10.0 mi ESE 3.5 mph - N/A   Clear